Temperature
4 5 5 5 5 5 5 5 5 5 5 5 5 5 5 5 5 5 5 6 6 6 6 6 6 6 6 6 6 6 5 5 5 5 5 5 5 5 5 5 5 5 5 5
4 5 5 5 5 5 5 5 5 5 5 5 5 5 4 4 4 4 5 5 5 5 5 6 6 6 6 5 5 5 5 5 5 5 4 4 4 4 4 4 4 4 4 4
3 4 4 4 4 4 4 4 4 5 5 4 4 4 4 4 4 4 4 4 5 5 5 5 5 5 5 5 5 5 4 4 4 4 4 4 4 4 4 4 4 4 4 4
2 3 3 4 4 4 4 4 4 4 3 3 4 4 4 4 4 4 4 4 4 4 5 5 5 5 5 4 4 4 4 4 4 4 4 4 4 3 3 3 3 3 3 3
2 2 3 3 3 3 3 3 3 3 3 2 3 3 3 4 4 4 4 4 4 4 4 4 4 4 4 4 4 4 3 3 3 3 3 3 3 3 3 3 3 3 3 3
1 2 2 2 2 3 3 2 2 2 2 2 2 2 2 3 3 3 4 4 4 4 4 4 4 3 3 3 3 3 3 3 3 3 3 3 3 3 3 3 3 2 2 2
1 1 1 1 1 2 2 2 2 2 2 2 1 2 2 2 2 3 3 3 3 3 3 3 3 3 3 3 3 3 2 2 2 2 2 2 2 2 2 2 2 2 2 2
0 0 0 0 0 1 1 1 1 1 1 1 1 1 2 2 2 2 2 2 2 2 3 2 2 2 2 2 2 2 2 2 2 2 2 2 2 2 2 2 2 1 1 1
-1 -0 -0 -0 0 0 1 0 1 1 1 1 0 0 1 1 1 1 1 1 1 2 2 2 2 2 2 2 1 1 1 1 1 1 1 1 1 1 1 1 1 1 1 1
-2 -1 -1 -1 -1 -1 -0 -0 -0 0 0 0 -0 -0 -0 -0 0 0 0 0 0 1 1 1 1 1 1 1 1 1 1 1 1 1 1 1 1 1 1 1 1 0 0 0
-2 -2 -2 -1 -2 -1 -1 -1 -1 -1 -1 -1 -1 -1 -1 -1 -1 -0 -0 -0 -0 -0 -0 -0 -0 -0 -0 0 0 0 0 0 0 1 0 0 0 0 0 0 0 0 0 0
-3 -2 -2 -2 -2 -2 -2 -2 -2 -2 -2 -1 -1 -1 -2 -2 -1 -1 -1 -1 -1 -1 -1 -1 -1 -1 -1 -1 -0 -0 -0 -0 -0 -0 -0 -0 -0 -0 -0 -0 -0 -0 -0 -0
-3 -3 -3 -3 -3 -3 -3 -3 -2 -2 -2 -2 -2 -2 -2 -2 -2 -2 -2 -2 -2 -2 -2 -2 -1 -1 -1 -1 -1 -1 -1 -1 -1 -1 -1 -1 -1 -1 -1 -1 -1 -1 -1 -1
-4 -4 -4 -4 -4 -4 -4 -3 -3 -3 -3 -3 -3 -3 -3 -3 -2 -2 -2 -2 -2 -2 -2 -2 -2 -2 -2 -2 -2 -2 -1 -1 -1 -1 -1 -1 -1 -1 -1 -1 -1 -1 -1 -2
-5 -5 -5 -5 -4 -4 -4 -4 -4 -4 -4 -4 -4 -4 -3 -3 -3 -3 -3 -3 -3 -3 -3 -3 -3 -3 -2 -2 -2 -2 -2 -2 -2 -2 -2 -2 -2 -2 -2 -2 -2 -2 -2 -2
-5 -5 -5 -5 -5 -5 -5 -5 -5 -5 -5 -5 -4 -4 -4 -4 -4 -4 -4 -4 -3 -3 -3 -3 -3 -3 -3 -3 -3 -3 -3 -3 -2 -2 -2 -3 -3 -3 -3 -3 -3 -3 -3 -3
-6 -6 -6 -6 -6 -6 -6 -6 -6 -6 -6 -5 -5 -5 -5 -5 -4 -4 -4 -4 -4 -4 -4 -4 -4 -4 -4 -4 -4 -4 -3 -3 -3 -3 -3 -3 -3 -3 -3 -3 -3 -3 -3 -4
-6 -7 -7 -7 -7 -7 -6 -6 -6 -6 -6 -6 -6 -6 -6 -5 -5 -5 -5 -5 -5 -4 -4 -4 -4 -4 -4 -4 -4 -4 -4 -4 -4 -4 -4 -4 -4 -4 -4 -4 -4 -4 -4 -4
-7 -7 -7 -7 -7 -7 -7 -7 -7 -7 -7 -7 -7 -6 -6 -6 -6 -6 -6 -5 -5 -5 -5 -5 -5 -5 -5 -5 -5 -5 -5 -5 -5 -5 -5 -5 -5 -5 -5 -5 -5 -5 -5 -5
-7 -7 -7 -7 -7 -7 -7 -7 -7 -7 -7 -7 -7 -7 -7 -7 -7 -7 -6 -6 -6 -6 -6 -6 -6 -6 -6 -6 -6 -5 -5 -5 -5 -5 -5 -5 -5 -5 -5 -5 -5 -5 -5 -5
-8 -8 -8 -8 -8 -8 -8 -8 -8 -8 -8 -8 -8 -8 -8 -8 -7 -7 -7 -7 -7 -7 -7 -6 -6 -6 -6 -6 -6 -6 -6 -6 -6 -6 -6 -6 -6 -6 -6 -6 -6 -6 -6 -6
-9 -9 -9 -9 -8 -8 -8 -8 -8 -8 -8 -8 -8 -8 -8 -8 -8 -8 -8 -8 -7 -7 -7 -7 -7 -7 -7 -7 -7 -7 -7 -7 -7 -7 -7 -7 -7 -7 -7 -7 -7 -7 -7 -7
-9 -9 -9 -9 -9 -9 -9 -9 -9 -9 -9 -9 -9 -9 -9 -9 -9 -8 -8 -8 -8 -8 -8 -8 -7 -8 -8 -7 -7 -7 -7 -7 -7 -7 -7 -7 -7 -7 -7 -7 -7 -7 -7 -7
-10 -10 -10 -10 -10 -9 -9 -9 -9 -9 -9 -9 -9 -9 -9 -9 -9 -9 -9 -9 -9 -9 -8 -8 -8 -8 -8 -8 -7 -7 -7 -7 -7 -7 -8 -7 -7 -8 -7 -8 -8 -8 -8 -8
-10 -10 -10 -10 -10 -10 -10 -10 -10 -10 -9 -9 -9 -9 -9 -10 -10 -9 -9 -9 -9 -9 -9 -9 -8 -8 -8 -8 -8 -8 -8 -8 -8 -8 -8 -8 -8 -8 -8 -8 -8 -8 -8 -8
-11 -11 -11 -11 -11 -11 -11 -11 -11 -11 -10 -10 -10 -10 -10 -10 -10 -10 -10 -9 -9 -9 -9 -9 -9 -9 -8 -8 -8 -8 -8 -8 -8 -8 -8 -8 -8 -8 -8 -8 -8 -8 -8 -8
-11 -11 -11 -11 -11 -11 -11 -12 -11 -11 -11 -11 -11 -11 -11 -10 -10 -10 -10 -10 -10 -10 -9 -9 -9 -9 -9 -9 -9 -9 -8 -8 -8 -8 -8 -8 -8 -8 -8 -8 -8 -8 -8 -8
Wind_Speed
10 8 6 7 8 8 9 10 10 9 9 9 6 5 4 3 2 3 3 3 2 2 2 3 3 3 4 4 4 5 6 6 7 6 6 6 6 6 6 6 7 7 6 6
8 7 7 9 9 10 9 8 9 8 10 6 4 1 1 2 2 3 3 3 3 3 3 3 4 4 4 4 5 5 5 5 5 5 5 5 6 6 6 6 6 6 6 6
6 4 3 8 7 7 5 4 5 9 10 4 2 2 2 2 2 3 4 4 4 3 3 4 4 4 4 4 4 5 5 4 4 5 5 5 6 6 6 6 6 6 6 6
4 2 8 5 1 3 5 3 2 2 2 2 3 3 2 1 2 3 3 3 3 3 3 2 2 1 2 2 3 4 4 4 4 5 5 5 5 6 6 5 6 6 6 6
3 4 6 3 2 1 3 2 2 2 3 3 2 2 2 3 3 3 4 3 2 2 2 1 0 1 2 2 2 3 4 4 4 5 5 5 5 6 5 5 5 5 5 6
3 3 4 3 5 5 2 2 4 3 3 2 2 1 3 5 5 4 4 3 2 2 2 1 1 1 2 2 2 3 3 4 4 4 5 5 5 5 4 4 4 4 4 5
5 4 3 4 7 3 2 3 5 3 3 1 0 2 3 3 4 3 4 4 3 2 2 1 1 2 2 1 1 2 2 2 3 3 4 4 3 3 4 4 4 4 4 3
2 3 4 6 4 1 1 3 4 4 3 2 2 3 3 4 4 4 4 4 3 3 3 2 2 2 2 1 1 1 1 1 2 2 2 2 3 3 3 4 4 4 3 2
2 2 3 2 1 2 3 3 4 4 4 3 3 4 4 4 4 5 4 4 3 2 3 3 3 2 1 1 1 1 1 1 1 1 1 2 3 3 3 4 4 3 3 3
1 2 5 5 5 6 5 4 4 3 3 3 3 3 4 4 4 4 4 4 3 3 3 4 4 3 1 1 1 2 1 1 1 1 1 1 1 2 3 4 4 3 3 3
3 4 5 5 6 7 7 6 6 6 5 4 3 4 4 4 4 4 4 3 3 3 2 3 3 3 3 2 2 2 1 1 1 1 1 1 1 1 2 3 4 4 4 4
3 4 4 5 6 6 6 6 6 6 6 5 3 3 4 4 4 4 4 4 4 3 3 3 3 3 3 2 1 1 1 1 1 1 1 1 1 1 2 0 1 1 2 3
4 5 4 5 6 6 6 6 6 5 5 5 5 4 4 4 3 4 4 4 4 3 3 3 3 3 4 3 2 1 0 0 0 1 1 1 1 1 0 2 2 1 0 1
5 4 4 6 6 7 7 7 6 7 6 5 5 4 4 4 4 4 4 4 4 4 3 3 3 3 3 3 2 2 1 1 1 1 1 1 1 1 1 1 1 1 1 1
7 5 4 5 6 8 7 7 7 8 8 7 6 5 5 5 4 4 4 4 4 4 4 4 3 4 3 3 2 2 1 1 1 0 0 1 1 1 1 1 1 1 1 1
7 6 6 7 8 8 8 8 8 8 7 7 7 6 5 4 4 4 4 4 4 5 4 4 4 4 3 2 2 2 2 3 2 1 0 0 1 1 1 1 1 1 2 2
7 7 8 9 8 8 8 7 7 7 7 7 7 7 6 5 5 5 5 4 4 4 4 4 4 4 3 2 2 1 1 2 3 2 1 1 1 1 1 2 2 2 2 3
5 5 5 5 6 7 8 8 8 7 7 7 7 6 6 5 5 5 5 5 5 5 4 4 4 4 3 3 2 1 1 1 1 1 1 1 1 1 1 2 2 2 2 2
7 6 6 6 6 6 7 7 8 7 7 6 6 6 6 6 5 5 5 5 5 5 5 5 6 4 4 4 4 1 1 1 2 1 1 2 2 1 2 2 2 2 2 2
7 7 7 7 7 6 6 7 7 7 7 6 6 6 6 7 6 6 5 4 4 4 5 6 5 4 4 4 4 1 1 2 2 2 1 1 2 2 2 2 2 2 2 3
8 8 7 7 7 7 6 6 6 6 7 6 6 6 6 7 7 5 4 5 5 5 5 6 4 4 4 4 4 2 2 2 2 2 2 2 2 2 2 2 2 2 2 2
7 6 7 7 6 7 7 6 5 6 6 6 6 6 6 7 7 6 4 3 5 8 5 3 3 5 6 6 2 2 2 2 2 2 2 2 2 2 2 2 2 2 2 2
6 6 6 6 6 6 6 6 5 5 6 7 7 7 6 6 5 5 5 5 5 8 6 4 6 9 8 4 2 2 3 3 3 3 3 2 2 2 2 2 2 2 2 2
6 6 7 6 5 5 6 7 6 6 6 6 6 6 6 5 5 4 4 7 9 9 5 7 9 9 8 3 3 3 3 3 3 3 3 3 2 2 2 2 2 2 2 2
6 5 5 6 6 5 6 7 6 6 6 6 6 6 5 4 4 5 5 5 8 8 5 7 9 9 5 3 3 3 3 3 3 3 2 2 2 2 3 2 2 2 2 3
5 5 5 5 5 5 5 5 5 6 6 6 6 6 5 5 5 5 5 5 6 7 5 4 5 5 4 4 4 4 3 4 4 3 3 3 3 3 3 3 3 3 3 3
5 5 5 5 5 5 5 5 6 6 6 6 7 7 6 6 6 5 6 5 5 5 4 4 4 4 4 4 4 4 3 3 3 3 3 3 3 3 3 3 3 3 3 3
Wind_Direction
254 254 241 242 243 224 218 217 221 235 231 247 250 253 269 290 320 332 323 316 294 270 256 240 220 211 203 195 189 182 179 182 191 191 187 184 186 186 185 186 191 189 190 191
262 251 244 259 254 235 233 233 231 240 254 255 250 225 284 293 310 316 312 307 301 295 266 241 230 219 212 206 195 182 183 186 181 179 178 180 181 180 180 184 185 185 191 190
259 257 259 257 248 227 213 218 211 237 251 256 249 248 253 278 283 281 295 297 296 292 270 250 242 223 212 213 193 181 185 183 178 178 179 183 180 177 184 186 182 188 192 192
251 216 230 242 197 194 204 238 233 230 265 240 231 239 240 257 269 286 297 295 297 307 310 285 259 231 196 178 173 174 178 186 189 184 187 185 181 184 187 184 187 192 193 193
220 233 256 289 347 311 216 244 345 288 302 322 323 52 6 349 329 303 293 290 285 292 306 313 288 195 147 141 158 171 183 197 202 189 186 187 191 192 189 186 191 193 191 192
216 223 234 280 312 307 171 236 330 318 299 316 46 9 295 328 336 335 339 353 359 5 12 24 7 122 132 148 165 199 200 201 200 189 184 192 199 196 190 188 191 186 189 193
232 238 262 316 327 10 136 272 324 324 310 311 197 252 293 325 342 348 352 354 6 19 19 5 27 112 124 133 227 243 208 191 191 187 180 184 183 182 178 179 174 178 187 197
224 232 276 334 15 75 279 331 356 360 0 11 1 359 0 358 358 3 1 359 10 23 12 10 40 102 103 350 314 4 97 157 175 174 170 165 167 176 176 169 168 178 180 193
216 234 306 352 32 352 6 9 2 0 5 20 11 360 1 4 3 3 2 2 10 33 24 16 22 78 108 335 11 68 90 106 136 136 148 167 171 175 173 170 174 183 184 195
306 322 339 360 13 8 8 4 356 5 8 12 2 355 1 2 5 3 1 2 10 34 39 19 9 15 37 22 46 99 114 112 131 143 146 152 174 178 174 179 181 186 194 200
292 312 340 354 359 355 355 1 8 5 4 7 13 1 359 0 357 358 360 4 13 24 27 9 7 12 15 30 65 73 81 88 107 140 154 161 172 191 190 200 198 196 199 196
290 319 313 318 339 349 354 351 351 355 357 358 8 1 358 354 351 353 356 3 8 11 16 7 11 13 8 16 61 96 81 71 101 134 146 149 137 38 15 178 225 223 209 207
311 324 333 329 341 350 352 347 346 349 348 345 348 357 358 355 356 2 2 7 5 358 3 9 15 11 3 5 22 53 74 33 136 149 152 162 164 156 63 17 29 25 246 254
356 357 353 349 341 350 355 353 358 360 355 351 349 354 359 359 2 4 359 356 2 6 8 13 14 2 353 5 18 15 10 355 346 173 170 186 201 202 199 208 259 291 282 264
358 360 343 342 356 359 1 4 7 2 359 358 359 360 1 360 355 351 351 357 5 7 4 5 1 346 346 1 9 357 353 345 335 225 181 190 195 196 201 212 222 245 275 277
346 359 6 6 2 360 2 3 1 354 354 355 355 353 352 353 351 350 352 357 359 349 345 348 339 331 334 347 353 348 338 332 343 325 231 215 202 200 208 215 224 230 244 251
1 356 354 354 353 354 355 353 350 346 348 350 347 347 352 356 356 354 349 348 346 335 333 332 326 331 337 340 338 327 329 332 339 339 300 256 234 230 231 230 239 245 249 252
347 339 340 343 345 346 348 350 349 345 343 341 346 352 353 349 340 334 334 339 346 345 337 331 336 342 342 340 331 316 310 304 311 309 302 285 273 251 244 246 251 260 270 276
357 356 354 355 353 348 345 343 342 341 343 350 352 349 346 343 338 331 332 340 340 335 332 336 341 350 340 331 333 323 322 317 315 309 301 297 305 280 261 256 255 254 259 263
356 355 353 351 353 352 345 340 339 343 347 350 350 350 349 347 345 340 337 331 321 312 317 329 338 338 330 322 330 325 326 315 305 304 305 282 275 274 266 262 257 255 256 256
347 347 348 347 344 344 341 338 340 340 341 346 346 342 340 338 340 341 340 331 327 332 337 340 342 329 322 322 328 329 314 303 299 294 292 288 284 278 272 268 267 267 265 265
340 341 341 340 341 338 336 337 337 338 341 342 342 341 341 339 339 338 331 317 321 332 339 331 325 324 329 333 332 320 309 302 299 297 293 291 287 284 283 281 280 279 274 271
334 337 335 334 333 330 333 338 339 340 339 338 337 337 336 331 329 329 326 330 330 331 335 321 324 330 334 344 338 328 319 310 304 304 303 300 297 294 292 289 285 282 279 281
334 336 334 332 335 343 343 339 339 338 333 329 331 333 333 330 327 324 316 324 333 332 332 329 335 338 344 352 339 328 318 312 306 301 299 296 292 292 291 290 290 288 283 280
336 336 335 338 341 339 334 334 336 337 336 335 334 335 332 325 318 321 322 323 330 333 331 331 336 339 345 333 326 318 310 304 300 298 295 297 295 293 289 284 279 280 278 275
337 334 330 328 327 329 335 337 336 335 334 333 332 332 333 330 324 323 323 323 323 329 329 323 325 331 330 323 318 314 312 312 315 315 304 296 291 290 288 287 285 279 277 276
334 334 335 338 342 343 339 336 333 331 331 328 325 328 331 331 331 330 328 326 326 325 322 322 322 320 316 315 313 309 306 303 302 302 299 295 290 286 283 279 278 277 274 271
Height
1443 1440 1440 1440 1439 1439 1440 1439 1441 1437 1437 1435 1435 1434 1433 1432 1431 1430 1429 1428 1427 1426 1426 1426 1426 1427 1428 1429 1430 1431 1432 1434 1435 1437 1440 1442 1444 1446 1448 1450 1452 1454 1457 1458
1442 1437 1437 1436 1434 1434 1434 1433 1433 1434 1433 1431 1432 1431 1431 1430 1429 1428 1427 1426 1425 1424 1424 1424 1424 1424 1424 1425 1427 1428 1429 1430 1432 1434 1436 1438 1440 1442 1444 1446 1448 1450 1452 1454
1442 1437 1436 1436 1431 1431 1431 1431 1431 1431 1429 1429 1430 1429 1428 1428 1427 1426 1425 1424 1423 1422 1421 1421 1421 1421 1421 1422 1423 1424 1425 1427 1429 1430 1432 1434 1436 1438 1440 1442 1444 1446 1448 1450
1442 1439 1440 1430 1426 1426 1427 1428 1428 1427 1426 1426 1426 1425 1425 1425 1426 1424 1423 1421 1420 1419 1419 1418 1418 1418 1419 1420 1420 1421 1422 1424 1426 1427 1429 1431 1433 1434 1436 1438 1440 1442 1444 1446
1440 1437 1431 1428 1428 1428 1427 1428 1427 1426 1425 1424 1423 1423 1423 1423 1423 1422 1420 1419 1418 1417 1417 1416 1416 1416 1416 1417 1417 1418 1419 1421 1423 1424 1426 1428 1429 1431 1433 1435 1437 1438 1440 1442
1438 1435 1431 1431 1427 1423 1424 1427 1426 1425 1424 1424 1423 1425 1424 1422 1421 1420 1418 1417 1416 1415 1415 1414 1414 1414 1414 1414 1414 1415 1416 1418 1420 1421 1423 1424 1426 1428 1429 1431 1433 1435 1436 1438
1437 1435 1432 1432 1426 1423 1430 1430 1426 1425 1424 1424 1424 1424 1423 1421 1420 1419 1417 1416 1415 1414 1414 1413 1413 1413 1412 1412 1412 1413 1414 1415 1417 1418 1420 1421 1423 1425 1426 1428 1429 1431 1433 1434
1438 1437 1438 1431 1429 1431 1431 1428 1426 1425 1423 1423 1422 1422 1421 1420 1418 1417 1416 1415 1414 1413 1412 1412 1412 1411 1411 1411 1411 1411 1412 1413 1414 1415 1416 1418 1420 1421 1423 1424 1426 1427 1429 1431
1439 1440 1436 1432 1431 1430 1429 1428 1426 1425 1424 1423 1422 1421 1420 1419 1417 1416 1415 1414 1413 1412 1411 1411 1410 1410 1410 1410 1409 1409 1410 1410 1411 1412 1414 1415 1417 1418 1419 1421 1422 1423 1425 1427
1439 1437 1435 1433 1431 1430 1429 1428 1427 1426 1424 1423 1422 1420 1419 1418 1416 1415 1414 1413 1412 1411 1410 1409 1409 1409 1409 1409 1408 1408 1408 1408 1409 1410 1411 1412 1414 1415 1416 1417 1418 1420 1422 1423
1440 1438 1436 1433 1433 1432 1430 1428 1427 1426 1425 1423 1421 1420 1418 1417 1415 1414 1413 1412 1411 1410 1410 1409 1409 1408 1408 1407 1407 1406 1406 1406 1407 1407 1408 1409 1411 1412 1413 1414 1416 1417 1418 1420
1441 1440 1438 1436 1434 1432 1430 1428 1427 1425 1423 1422 1421 1419 1417 1416 1415 1414 1413 1412 1411 1410 1409 1408 1408 1407 1407 1406 1406 1405 1405 1405 1405 1405 1406 1407 1408 1409 1411 1412 1413 1414 1415 1416
1442 1440 1438 1436 1434 1432 1430 1428 1426 1424 1423 1421 1420 1419 1417 1416 1414 1413 1412 1411 1410 1409 1408 1408 1407 1406 1406 1405 1404 1404 1403 1403 1403 1404 1404 1405 1406 1406 1407 1409 1411 1412 1413 1413
1441 1439 1437 1435 1433 1431 1429 1427 1425 1423 1422 1420 1419 1417 1416 1414 1413 1412 1411 1410 1409 1408 1408 1407 1406 1405 1405 1404 1404 1403 1402 1402 1402 1402 1403 1403 1404 1405 1405 1405 1406 1408 1409 1410
1441 1439 1438 1435 1433 1431 1429 1426 1424 1422 1421 1419 1417 1416 1414 1413 1412 1411 1410 1409 1408 1407 1407 1406 1405 1404 1404 1403 1402 1402 1401 1401 1400 1401 1401 1402 1402 1402 1403 1403 1404 1404 1405 1406
1441 1439 1437 1435 1433 1431 1429 1426 1424 1422 1420 1418 1416 1415 1414 1412 1411 1410 1409 1408 1407 1406 1405 1404 1404 1403 1402 1401 1400 1400 1399 1399 1399 1399 1399 1399 1399 1400 1400 1400 1400 1401 1402 1402
1442 1439 1437 1435 1433 1431 1429 1427 1425 1423 1420 1418 1416 1414 1413 1411 1410 1408 1408 1407 1406 1405 1404 1403 1402 1401 1401 1400 1399 1398 1397 1397 1397 1396 1396 1396 1397 1397 1397 1397 1397 1398 1398 1399
1442 1440 1438 1436 1434 1431 1429 1427 1425 1422 1420 1418 1416 1414 1412 1410 1408 1407 1406 1405 1404 1403 1403 1402 1400 1399 1399 1398 1397 1396 1395 1395 1394 1394 1394 1394 1394 1394 1394 1394 1394 1394 1395 1395
1441 1439 1437 1435 1433 1431 1429 1427 1425 1422 1420 1417 1415 1413 1411 1409 1407 1405 1404 1403 1402 1400 1400 1399 1398 1397 1396 1395 1395 1393 1393 1392 1391 1391 1391 1391 1391 1391 1391 1391 1391 1392 1392 1392
1440 1438 1435 1433 1431 1430 1428 1426 1424 1421 1419 1417 1414 1412 1410 1407 1405 1403 1402 1401 1400 1399 1398 1397 1396 1395 1394 1393 1392 1391 1390 1390 1389 1389 1388 1388 1388 1388 1388 1388 1388 1388 1388 1388
1439 1437 1434 1432 1430 1429 1427 1425 1423 1420 1418 1416 1413 1411 1408 1406 1404 1402 1400 1398 1398 1397 1395 1394 1393 1392 1392 1391 1390 1389 1388 1388 1387 1387 1386 1386 1385 1385 1385 1385 1385 1385 1385 1385
1438 1436 1433 1431 1429 1427 1425 1423 1421 1419 1416 1414 1412 1410 1407 1405 1403 1401 1399 1398 1396 1395 1393 1392 1391 1390 1389 1389 1388 1387 1386 1386 1385 1384 1384 1383 1383 1383 1382 1382 1382 1382 1381 1381
1437 1435 1432 1430 1428 1425 1423 1421 1419 1417 1415 1413 1411 1408 1406 1404 1402 1399 1397 1396 1394 1392 1391 1390 1389 1388 1387 1386 1385 1385 1384 1383 1383 1382 1381 1381 1381 1380 1380 1379 1379 1378 1378 1378
1435 1433 1431 1428 1426 1424 1421 1419 1418 1416 1414 1412 1410 1407 1405 1402 1400 1398 1396 1394 1392 1391 1389 1388 1387 1386 1385 1384 1383 1382 1382 1381 1380 1380 1379 1379 1378 1378 1377 1376 1376 1376 1375 1375
1434 1431 1429 1427 1424 1422 1420 1418 1415 1413 1412 1410 1408 1406 1403 1401 1399 1396 1394 1392 1390 1389 1387 1386 1385 1384 1382 1381 1381 1380 1379 1379 1378 1377 1377 1376 1375 1375 1374 1374 1373 1373 1372 1372
1432 1430 1427 1425 1423 1421 1418 1416 1414 1412 1409 1407 1405 1403 1401 1399 1396 1394 1392 1390 1388 1387 1385 1384 1383 1381 1380 1379 1378 1378 1377 1376 1375 1374 1374 1373 1373 1372 1371 1371 1370 1370 1369 1368
1431 1428 1426 1424 1422 1419 1417 1415 1412 1410 1408 1405 1403 1401 1399 1396 1394 1392 1390 1388 1386 1385 1383 1382 1381 1379 1378 1377 1376 1375 1374 1373 1373 1372 1371 1370 1370 1369 1368 1368 1367 1366 1366 1365